Back to catalog

TIANMU-1 13

AliveWeatherSSO
NORAD 58647·PAYLOAD·🇨🇳 China

Launched Dec 25, 2023 from Jiuquan Satellite Launch Center

Loading…

Next Passes (next 24 hours)

TLE

FreshSource: Space-Track

Epoch: Sep 14, 2026, 11:54 UTC

1 58647U 23205C   26257.49589681  .00004142  00000-0  15692-3 0  9991
2 58647  97.3446 277.7068 0006812  29.9760 330.1869 15.27432590151131

Track TIANMU-1 13 in real time with AllMySat

Download on the App Store